HYLAS 1

Last updated on Mon Sep 07 2026 00:02:58 GMT+0000 (Coordinated Universal Time)

1 37237U 10065A 26249.65880623 -.00000370 00000+0 00000+0 0 9994 2 37237 5.8435 71.9764 0003512 156.6093 99.2508 1.00645247 7700
UTC large
Height (km)
Speed (km/s)
/
Latitude / Longitude
Inclination (degrees)
Orbital Period (minutes)
Azimuth
Elevation
Range (km)
Doppler Factor

Next 0 passes for location: London (51.5072 / 0.1276)

No passes found over London.
HYLAS 1